This is the latest recevied weather packets stored in our database for station/object K3RUP-1. If no packets are shown the sender has not sent any weather packets the latest 10 day(s).
| Time | Temp. | Humidity | Pressure | Rain* | Wind** | Luminosity | Snow |
|---|---|---|---|---|---|---|---|
| 1788135765 | 26.67° C | 90% | 1018 hPa | 0 mm | - | 0 W/m² | - |
| 1788135461 | 26.11° C | 90% | 1017.7 hPa | 0 mm | - | 0 W/m² | - |
| 1788135156 | 26.67° C | 90% | 1017.6 hPa | 0 mm | - | 0 W/m² | - |
| 1788134853 | 26.11° C | 90% | 1017.8 hPa | 0 mm | - | 0 W/m² | - |
| 1788134548 | 26.67° C | 90% | 1017.9 hPa | 0 mm | - | 0 W/m² | - |
| 1788134247 | 26.67° C | 89% | 1017.7 hPa | 0 mm | - | 0 W/m² | - |
| 1788133942 | 26.67° C | 89% | 1017.6 hPa | 0 mm | - | 0 W/m² | - |
| 1788133636 | 26.67° C | 89% | 1017.6 hPa | 0 mm | - | 0 W/m² | - |
| 1788133332 | 26.67° C | 88% | 1017.6 hPa | 0 mm | - | 0 W/m² | - |
| 1788133028 | 26.67° C | 88% | 1017.7 hPa | 0 mm | - | 0 W/m² | - |
| 1788132718 | 26.67° C | 88% | 1017.7 hPa | 0 mm | - | 1 W/m² | - |
| 1788132413 | 26.67° C | 88% | 1017.6 hPa | 0 mm | - | 3 W/m² | - |
| 1788132109 | 27.22° C | 87% | 1017.8 hPa | 0 mm | - | 5 W/m² | - |
| 1788131805 | 27.22° C | 87% | 1017.8 hPa | 0 mm | - | 9 W/m² | - |
| 1788131504 | 27.22° C | 87% | 1017.8 hPa | 0 mm | - | 10 W/m² | - |
| 1788131199 | 27.22° C | 87% | 1017.8 hPa | 0 mm | - | 6 W/m² | - |
| 1788130899 | 27.22° C | 87% | 1018 hPa | 0 mm | - | 6 W/m² | - |
| 1788130594 | 27.78° C | 86% | 1017.8 hPa | 0 mm | - | 6 W/m² | - |
| 1788130289 | 27.78° C | 85% | 1017.8 hPa | 0 mm | - | 6 W/m² | - |
| 1788129987 | 27.78° C | 85% | 1017.8 hPa | 0 mm | - | 10 W/m² | - |
| 1788129679 | 27.78° C | 85% | 1017.8 hPa | 0 mm | - | 13 W/m² | - |
| 1788129375 | 28.33° C | 84% | 1017.8 hPa | 0 mm | - | 20 W/m² | - |
| 1788129074 | 28.33° C | 84% | 1017.8 hPa | 0 mm | - | 31 W/m² | - |
| 1788128769 | 28.33° C | 83% | 1017.7 hPa | 0 mm | - | 49 W/m² | - |
| 1788128466 | 28.33° C | 83% | 1017.8 hPa | 0 mm | - | 60 W/m² | - |
* Rain latest hour (hover to see other rain measurements)
** Current wind speed in m/s (hover to see current wind gust speed)